Weather History for Dayton, OH

Change the Weather History Date:

Tuesday, May 6, 2014

  Actual Average Record
Temperature  
Mean Temperature 58 °F 58 °F  
Max Temperature 72 °F 69 °F 89 °F (1949)
Min Temperature 44 °F 48 °F 31 °F (1968)
Degree Days  
Heating Degree Days 7 7  
Month to date heating degree days 58 48  
Since 1 July heating degree days 5866 5499  
Cooling Degree Days 0 1  
Month to date cooling degree days 0 6  
Year to date cooling degree days 8 16  
Growing Degree Days 8 (Base 50)    
Moisture  
Dew Point 40 °F    
Average Humidity 57    
Maximum Humidity 83    
Minimum Humidity 31    
Precipitation  
Precipitation 0.00 in 0.15 in 0.91 in (1971)
Month to date precipitation 0.02 0.90  
Year to date precipitation 13.42 13.28  
Snow  
Snow 0.00 in 0.00 in 0.00 in ()
Month to date snowfall 0.0 0.0  
Since 1 July snowfall 53.6 23.3  
Snow Depth 0.00 in    
Sea Level Pressure  
Sea Level Pressure 29.97 in    
Wind  
Wind Speed 9 mph (ENE)    
Max Wind Speed 16 mph    
Max Gust Speed 23 mph    
Visibility 10 miles    
Events      
T = Trace of Precipitation, MM = Missing Value Source: NWS Daily Summary

Daily Weather History Graph

Daily Weather History Graph

Search for Another Location

Airport:

Trip Planner

Search our weather history database for the weather conditions in past years. The results will help you decide how hot, cold, wet, or windy it might be!

Date:

Astronomy

May. 06, 2014 Rise Set
Actual Time 6:31 AM EDT 8:36 PM EDT
Civil Twilight 6:01 AM EDT 9:06 PM EDT
Nautical Twilight 5:25 AM EDT 9:42 PM EDT
Astronomical Twilight 4:45 AM EDT 10:22 PM EDT
Moon 12:46 PM EDT (5/6) 1:55 AM EDT (5/6)
Length of Visible Light 15h 04m
Length of Day
14h 05m
Waxing Crescent, 46% of the Moon is Illuminated
May 6
Waxing Crescent
May 6
First Quarter
May 14
Full
May 21
Last Quarter
May 28
New

Hourly Weather History & Observations

Time (EDT) Temp. Windchill Dew Point Humidity Pressure Visibility Wind Dir Wind Speed Gust Speed Precip Events Conditions
12:56 AM 46.4 °F 43.5 °F 39.2 °F 76% 29.94 in 10.0 mi NE 5.8 mph - N/A   Scattered Clouds
1:56 AM 46.9 °F - 37.9 °F 71% 29.94 in 10.0 mi NNE 3.5 mph - N/A   Partly Cloudy
2:56 AM 46.0 °F 42.5 °F 37.9 °F 73% 29.94 in 10.0 mi NNE 6.9 mph - N/A   Partly Cloudy
7:56 AM 48.9 °F - 39.0 °F 69% 30.00 in 10.0 mi East 10.4 mph - N/A   Scattered Clouds
8:56 AM 52.0 °F - 39.0 °F 61% 30.01 in 10.0 mi East 12.7 mph - N/A   Mostly Cloudy
9:56 AM 55.9 °F - 39.0 °F 53% 30.02 in 10.0 mi East 11.5 mph - N/A   Mostly Cloudy
10:56 AM 60.1 °F - 39.0 °F 46% 30.01 in 10.0 mi ENE 12.7 mph - N/A   Mostly Cloudy
11:56 AM 62.1 °F - 39.0 °F 43% 30.01 in 10.0 mi East 9.2 mph 18.4 mph N/A   Mostly Cloudy
12:56 PM 64.9 °F - 39.0 °F 39% 30.00 in 10.0 mi ESE 13.8 mph - N/A   Mostly Cloudy
1:56 PM 68.0 °F - 39.9 °F 36% 29.98 in 10.0 mi East 12.7 mph 23.0 mph N/A   Mostly Cloudy
2:56 PM 70.0 °F - 39.9 °F 33% 29.97 in 10.0 mi ENE 13.8 mph 17.3 mph N/A   Scattered Clouds
4:56 PM 72.0 °F - 41.0 °F 33% 29.94 in 10.0 mi East 10.4 mph - N/A   Scattered Clouds
5:56 PM 72.0 °F - 41.0 °F 33% 29.94 in 10.0 mi East 9.2 mph - N/A   Scattered Clouds
6:56 PM 70.0 °F - 39.9 °F 33% 29.95 in 10.0 mi East 10.4 mph - N/A   Mostly Cloudy
7:56 PM 69.1 °F - 39.0 °F 33% 29.95 in 10.0 mi East 10.4 mph - N/A   Mostly Cloudy
8:56 PM 64.9 °F - 39.9 °F 40% 29.95 in 10.0 mi East 6.9 mph - N/A   Mostly Cloudy
9:56 PM 63.0 °F - 41.0 °F 45% 29.97 in 10.0 mi ENE 6.9 mph - N/A   Scattered Clouds
10:56 PM 62.6 °F - 41.0 °F 45% 29.93 in 10.0 mi East 11.5 mph - N/A   Mostly Cloudy
11:56 PM 57.9 °F - 43.0 °F 58% 29.96 in 10.0 mi East 8.1 mph - N/A   Scattered Clouds